timestamp,surface_pressure_avg,surface_temp_avg,battery_voltage,lat,long
2018-08-26 00:00:00+00:00,342.588,18.91,13.13,47.84626,-54.09684
2018-08-26 00:10:00+00:00,341.523,18.96,13.05,47.84626,-54.09684
2018-08-26 00:20:00+00:00,338.448,19.0,13.13,47.84626,-54.09684
2018-08-26 00:30:00+00:00,333.2963,19.0,13.13,47.84626,-54.09684
2018-08-26 00:40:00+00:00,331.8747,19.0,13.13,47.84626,-54.09684
2018-08-26 00:50:00+00:00,329.303,19.0,13.13,47.84626,-54.09684
2018-08-26 01:00:00+00:00,321.9797,19.05,13.05,47.84626,-54.09684
2018-08-26 01:10:00+00:00,316.548,19.1,12.97,47.84626,-54.09684
2018-08-26 01:20:00+00:00,314.2864,19.1,13.05,47.84626,-54.09684
2018-08-26 01:30:00+00:00,307.3713,19.1,13.05,47.84626,-54.09684
2018-08-26 01:40:00+00:00,296.4014,19.1,13.13,47.84626,-54.09684
2018-08-26 01:50:00+00:00,293.053,19.1,13.13,47.84626,-54.09684
2018-08-26 02:00:00+00:00,291.5164,19.1,13.05,47.84626,-54.09684
2018-08-26 02:10:00+00:00,281.3047,19.1,12.97,47.84626,-54.09684
2018-08-26 02:20:00+00:00,271.4264,19.12,13.05,47.84626,-54.09684
2018-08-26 02:30:00+00:00,269.1931,19.1,13.05,47.84626,-54.09684
2018-08-26 02:40:00+00:00,264.4247,19.1,13.05,47.84626,-54.09684
2018-08-26 02:50:00+00:00,253.1781,19.15,13.05,47.84626,-54.09684
2018-08-26 03:00:00+00:00,245.1931,19.2,13.05,47.84626,-54.09684
2018-08-26 03:10:00+00:00,241.7731,19.2,12.97,47.84626,-54.09684
2018-08-26 03:20:00+00:00,233.6515,19.2,13.05,47.84626,-54.09684
2018-08-26 03:30:00+00:00,223.7014,19.2,13.05,47.84626,-54.09684
2018-08-26 03:40:00+00:00,218.5531,19.2,13.05,47.84626,-54.09684
2018-08-26 03:50:00+00:00,213.9398,19.2,13.05,47.84626,-54.09684
2018-08-26 04:00:00+00:00,205.9015,19.2,13.05,47.84626,-54.09684
2018-08-26 04:10:00+00:00,199.9564,19.2,12.97,47.84626,-54.09684
2018-08-26 04:20:00+00:00,198.1598,19.2,13.05,47.84626,-54.09684
2018-08-26 04:30:00+00:00,196.1932,19.2,13.05,47.84626,-54.09684
2018-08-26 04:40:00+00:00,190.9831,19.2,13.05,47.84626,-54.09684
2018-08-26 04:50:00+00:00,187.1481,19.2,13.05,47.84626,-54.09684
2018-08-26 05:00:00+00:00,187.4998,19.2,12.97,47.84626,-54.09684
2018-08-26 05:10:00+00:00,186.4248,19.2,12.97,47.84626,-54.09684
2018-08-26 05:20:00+00:00,183.1982,19.2,12.97,47.84626,-54.09684
2018-08-26 05:30:00+00:00,183.1331,19.19,12.97,47.84626,-54.09684
2018-08-26 05:40:00+00:00,183.9031,19.17,13.05,47.84626,-54.09684
2018-08-26 05:50:00+00:00,183.1482,19.17,13.05,47.84626,-54.09684
2018-08-26 06:00:00+00:00,185.2731,19.17,12.97,47.84626,-54.09684
2018-08-26 06:10:00+00:00,190.1098,19.15,12.89,47.84626,-54.09684
2018-08-26 06:20:00+00:00,193.0732,19.15,12.97,47.84626,-54.09684
2018-08-26 06:30:00+00:00,194.5131,19.18,12.97,47.84626,-54.09684
2018-08-26 06:40:00+00:00,199.5698,19.19,12.97,47.84626,-54.09684
2018-08-26 06:50:00+00:00,204.7215,19.17,13.05,47.84626,-54.09684
2018-08-26 07:00:00+00:00,205.3748,19.19,12.97,47.84626,-54.09684
2018-08-26 07:10:00+00:00,209.8331,19.2,12.89,47.84626,-54.09684
2018-08-26 07:20:00+00:00,216.6498,19.2,12.97,47.84626,-54.09684
2018-08-26 07:30:00+00:00,219.2381,19.2,12.97,47.84626,-54.09684
2018-08-26 07:40:00+00:00,221.6314,19.2,12.97,47.84626,-54.09684
2018-08-26 07:50:00+00:00,227.2498,19.2,12.97,47.84626,-54.09684
2018-08-26 08:00:00+00:00,233.2548,19.2,12.97,47.84626,-54.09684
2018-08-26 08:10:00+00:00,237.4764,19.2,12.89,47.84626,-54.09684
2018-08-26 08:20:00+00:00,241.9548,19.2,12.97,47.84626,-54.09684
2018-08-26 08:30:00+00:00,248.4714,19.2,12.97,47.84626,-54.09684
2018-08-26 08:40:00+00:00,254.9564,19.19,12.97,47.84626,-54.09684
2018-08-26 08:50:00+00:00,259.5364,19.11,12.97,47.84626,-54.09684
2018-08-26 09:00:00+00:00,263.0697,19.1,12.89,47.84626,-54.09684
2018-08-26 09:10:00+00:00,266.5747,19.1,12.81,47.84626,-54.09684
2018-08-26 09:20:00+00:00,271.313,19.1,12.97,47.84626,-54.09684
2018-08-26 09:30:00+00:00,278.018,19.1,12.97,47.84626,-54.09684
2018-08-26 09:40:00+00:00,284.118,19.1,13.05,47.84626,-54.09684
2018-08-26 09:50:00+00:00,288.1047,19.1,13.13,47.84626,-54.09684
2018-08-26 10:00:00+00:00,294.2697,19.1,13.21,47.84626,-54.09684
2018-08-26 10:10:00+00:00,302.8714,19.1,13.29,47.84626,-54.09684
2018-08-26 10:20:00+00:00,307.618,19.1,13.68,47.84626,-54.09684
2018-08-26 10:30:00+00:00,311.9613,19.1,13.84,47.84626,-54.09684
2018-08-26 10:40:00+00:00,320.268,19.1,13.84,47.84626,-54.09684
2018-08-26 10:50:00+00:00,325.508,19.12,13.84,47.84626,-54.09684
2018-08-26 11:00:00+00:00,326.8914,19.15,13.76,47.84626,-54.09684
2018-08-26 11:10:00+00:00,329.8063,19.16,13.84,47.84626,-54.09684
2018-08-26 11:20:00+00:00,333.7913,19.16,14.08,47.84626,-54.09684
2018-08-26 11:30:00+00:00,333.1997,19.19,14.4,47.84626,-54.09684
2018-08-26 11:40:00+00:00,331.3813,19.2,14.8,47.84626,-54.09684
2018-08-26 11:50:00+00:00,334.7063,19.2,14.48,47.84626,-54.09684
2018-08-26 12:00:00+00:00,336.1197,19.2,14.56,47.84626,-54.09684
2018-08-26 12:10:00+00:00,333.6163,19.2,14.48,47.84626,-54.09684
2018-08-26 12:20:00+00:00,331.2247,19.2,14.56,47.84626,-54.09684
2018-08-26 12:30:00+00:00,332.688,19.22,14.64,47.84626,-54.09684
2018-08-26 12:40:00+00:00,329.9196,19.23,14.72,47.84626,-54.09684
2018-08-26 12:50:00+00:00,323.4514,19.2,14.72,47.84626,-54.09684
2018-08-26 13:00:00+00:00,322.8981,19.2,14.32,47.84626,-54.09684
2018-08-26 13:10:00+00:00,320.093,19.2,14.24,47.84626,-54.09684
2018-08-26 13:20:00+00:00,310.7646,19.2,14.24,47.84626,-54.09684
2018-08-26 13:30:00+00:00,304.658,19.2,14.48,47.84626,-54.09684
2018-08-26 13:40:00+00:00,304.5613,19.2,14.4,47.84626,-54.09684
2018-08-26 13:50:00+00:00,299.388,19.2,14.8,47.84626,-54.09684
2018-08-26 14:00:00+00:00,289.7364,19.24,14.56,47.84626,-54.09684
2018-08-26 14:10:00+00:00,283.8364,19.26,14.56,47.84626,-54.09684
2018-08-26 14:20:00+00:00,281.018,19.2,14.56,47.84626,-54.09684
2018-08-26 14:30:00+00:00,272.9281,19.23,14.64,47.84626,-54.09684
2018-08-26 14:40:00+00:00,263.7797,19.3,14.56,47.84626,-54.09684
2018-08-26 14:50:00+00:00,259.1031,19.3,14.56,47.84626,-54.09684
2018-08-26 15:00:00+00:00,254.5631,19.3,14.48,47.84626,-54.09684
2018-08-26 15:10:00+00:00,245.8731,19.3,14.48,47.84626,-54.09684
2018-08-26 15:20:00+00:00,237.6981,19.38,14.56,47.84626,-54.09684
2018-08-26 15:30:00+00:00,231.8681,19.4,14.48,47.84626,-54.09684
2018-08-26 15:40:00+00:00,226.7631,19.4,14.48,47.84626,-54.09684
2018-08-26 15:50:00+00:00,220.0681,19.4,14.48,47.84626,-54.09684
2018-08-26 16:00:00+00:00,215.0514,19.4,14.4,47.84626,-54.09684
2018-08-26 16:10:00+00:00,209.5265,19.4,14.32,47.84626,-54.09684
2018-08-26 16:20:00+00:00,203.9581,19.4,14.48,47.84626,-54.09684
2018-08-26 16:30:00+00:00,198.3815,19.4,14.4,47.84626,-54.09684
2018-08-26 16:40:00+00:00,195.0215,19.4,14.4,47.84626,-54.09684
2018-08-26 16:50:00+00:00,192.7381,19.36,14.4,47.84626,-54.09684
2018-08-26 17:00:00+00:00,188.2581,19.4,14.32,47.84626,-54.09684
2018-08-26 17:10:00+00:00,187.3898,19.45,14.24,47.84626,-54.09684
2018-08-26 17:20:00+00:00,190.1698,19.49,14.32,47.84626,-54.09684
2018-08-26 17:30:00+00:00,189.1298,19.5,14.32,47.84626,-54.09684
2018-08-26 17:40:00+00:00,190.4498,19.5,14.24,47.84626,-54.09684
2018-08-26 17:50:00+00:00,193.8698,19.4,14.24,47.84626,-54.09684
2018-08-26 18:00:00+00:00,194.0215,19.39,14.16,47.84626,-54.09684
2018-08-26 18:10:00+00:00,195.2348,19.4,14.08,47.84626,-54.09684
2018-08-26 18:20:00+00:00,199.3615,19.4,14.16,47.84626,-54.09684
2018-08-26 18:30:00+00:00,204.4131,19.4,14.08,47.84626,-54.09684
2018-08-26 18:40:00+00:00,206.2631,19.4,14.08,47.84626,-54.09684
2018-08-26 18:50:00+00:00,208.2581,19.49,14.08,47.84626,-54.09684
2018-08-26 19:00:00+00:00,214.3265,19.47,14.0,47.84626,-54.09684
2018-08-26 19:10:00+00:00,219.5748,19.48,13.92,47.84626,-54.09684
2018-08-26 19:20:00+00:00,221.5264,19.5,14.0,47.84626,-54.09684
2018-08-26 19:30:00+00:00,225.5164,19.56,14.0,47.84626,-54.09684
2018-08-26 19:40:00+00:00,232.9664,19.5,14.0,47.84626,-54.09684
2018-08-26 19:50:00+00:00,239.6165,19.5,14.0,47.84626,-54.09684
2018-08-26 20:00:00+00:00,242.1881,19.5,13.92,47.84626,-54.09684
2018-08-26 20:10:00+00:00,244.4414,19.5,13.84,47.84626,-54.09684
2018-08-26 20:20:00+00:00,248.9565,19.54,13.84,47.84626,-54.09684
2018-08-26 20:30:00+00:00,256.3415,19.5,13.84,47.84626,-54.09684
2018-08-26 20:40:00+00:00,262.1497,19.49,13.92,47.84626,-54.09684
2018-08-26 20:50:00+00:00,267.5997,19.49,13.92,47.84626,-54.09684
2018-08-26 21:00:00+00:00,275.7064,19.56,13.84,47.84626,-54.09684
2018-08-26 21:10:00+00:00,285.5997,19.48,13.68,47.84626,-54.09684
2018-08-26 21:20:00+00:00,291.7713,19.53,13.68,47.84626,-54.09684
2018-08-26 21:30:00+00:00,298.2847,19.57,13.68,47.84626,-54.09684
2018-08-26 21:40:00+00:00,306.0247,19.5,13.6,47.84626,-54.09684
2018-08-26 21:50:00+00:00,312.3196,19.49,13.6,47.84626,-54.09684
2018-08-26 22:00:00+00:00,315.9546,19.49,13.53,47.84626,-54.09684
2018-08-26 22:10:00+00:00,322.7547,19.5,13.37,47.84626,-54.09684
2018-08-26 22:20:00+00:00,330.9397,19.5,13.37,47.84626,-54.09684
2018-08-26 22:30:00+00:00,339.2479,19.5,13.29,47.84626,-54.09684
2018-08-26 22:40:00+00:00,345.078,19.48,13.29,47.84626,-54.09684
2018-08-26 22:50:00+00:00,350.6414,19.48,13.29,47.84626,-54.09684
2018-08-26 23:00:00+00:00,355.5646,19.49,13.21,47.84626,-54.09684
2018-08-26 23:10:00+00:00,360.0429,19.49,13.05,47.84626,-54.09684
2018-08-26 23:20:00+00:00,364.0663,19.4,13.13,47.84626,-54.09684
2018-08-26 23:30:00+00:00,366.5978,19.4,13.13,47.84626,-54.09684
2018-08-26 23:40:00+00:00,369.233,19.4,13.13,47.84626,-54.09684
2018-08-26 23:50:00+00:00,369.6312,19.4,13.13,47.84626,-54.09684
